Weather History for Ottumwa, IA

Change the Weather History Date:

Monday, March 18, 2013

  Actual Average Record
Temperature  
Mean Temperature 31 °F 40 °F  
Max Temperature 39 °F 50 °F 81 °F (2012)
Min Temperature 22 °F 29 °F 2 °F (1923)
Degree Days  
Heating Degree Days 34 25  
Month to date heating degree days 614 520  
Since 1 July heating degree days 5141 5405  
Cooling Degree Days 0 0  
Month to date cooling degree days 0 0  
Year to date cooling degree days 0 0  
Moisture  
Dew Point 27 °F    
Average Humidity 78    
Maximum Humidity 100    
Minimum Humidity 56    
Precipitation  
Precipitation 0.14 in 0.07 in 1.06 in (1963)
Month to date precipitation 1.97 1.24  
Year to date precipitation 5.30 3.42  
Sea Level Pressure  
Sea Level Pressure 29.78 in    
Wind  
Wind Speed 14 mph (West)    
Max Wind Speed 31 mph    
Max Gust Speed 41 mph    
Visibility 5 miles    
Events Fog , Rain , Snow    
T = Trace of Precipitation, MM = Missing Value Source: NWS Daily Summary

Daily Weather History Graph

Daily Weather History Graph

Search for Another Location

Airport:

Trip Planner

Search our weather history database for the weather conditions in past years. The results will help you decide how hot, cold, wet, or windy it might be!

Date:

Astronomy

Mar. 18, 2013 Rise Set
Actual Time 7:16 AM CDT 7:20 PM CDT
Civil Twilight 6:48 AM CDT 7:47 PM CDT
Nautical Twilight 6:16 AM CDT 8:19 PM CDT
Astronomical Twilight 5:43 AM CDT 8:52 PM CDT
Moon 11:13 AM CDT (3/18) 1:22 AM CDT (3/18)
Length of Visible Light 12h 58m
Length of Day
12h 04m
Waxing Crescent, 41% of the Moon is Illuminated
Mar 18
Waxing Crescent
Mar 19
First Quarter
Mar 27
Full
Apr 2
Last Quarter
Apr 10
New

Hourly Weather History & Observations

Time (CDT) Temp. Windchill Dew Point Humidity Pressure Visibility Wind Dir Wind Speed Gust Speed Precip Events Conditions
12:26 AM 32.0 °F 23.0 °F 28.4 °F 87% 29.83 in 5.0 mi East 11.5 mph - 0.00 in   Overcast
12:53 AM 32.0 °F 23.6 °F 28.9 °F 88% 29.84 in 7.0 mi East 10.4 mph - 0.00 in   Overcast
1:53 AM 30.9 °F 20.7 °F 28.0 °F 89% 29.82 in 8.0 mi East 13.8 mph - 0.00 in   Overcast
2:05 AM 30.2 °F 20.8 °F 28.4 °F 93% 29.80 in 6.0 mi East 11.5 mph - 0.00 in Rain Light Freezing Rain
2:24 AM 30.2 °F 20.8 °F 28.4 °F 93% 29.79 in 5.0 mi East 11.5 mph - 0.00 in Rain Light Freezing Rain
2:38 AM 30.2 °F 22.6 °F 28.4 °F 93% 29.79 in 6.0 mi East 8.1 mph - 0.00 in   Overcast
2:53 AM 30.9 °F 22.2 °F 28.9 °F 92% 29.81 in 6.0 mi East 10.4 mph - 0.00 in   Overcast
3:07 AM 30.2 °F 20.2 °F 28.4 °F 93% 29.78 in 4.0 mi East 12.7 mph - 0.01 in Rain Light Freezing Rain
3:14 AM 30.2 °F 21.3 °F 28.4 °F 93% 29.78 in 4.0 mi East 10.4 mph - 0.01 in Rain Light Freezing Rain
3:46 AM 30.2 °F 24.3 °F 28.4 °F 93% 29.77 in 4.0 mi ESE 5.8 mph - 0.02 in Rain Light Freezing Rain
3:53 AM 30.9 °F 22.8 °F 28.9 °F 92% 29.78 in 4.0 mi East 9.2 mph - 0.03 in Rain Light Freezing Rain
4:34 AM 30.2 °F 20.8 °F 28.4 °F 93% 29.72 in 4.0 mi East 11.5 mph - 0.01 in   Overcast
4:53 AM 30.9 °F 24.3 °F 28.9 °F 92% 29.75 in 5.0 mi East 6.9 mph - 0.01 in   Overcast
5:53 AM 30.9 °F - 30.0 °F 96% 29.76 in 3.0 mi Calm Calm - 0.00 in   Overcast
6:31 AM 30.2 °F - 28.4 °F 93% 29.74 in 1.8 mi Calm Calm - 0.01 in Snow Light Snow
6:53 AM 30.9 °F 27.5 °F 30.0 °F 96% 29.77 in 1.5 mi WNW 3.5 mph - 0.02 in Snow Light Snow
7:01 AM 30.2 °F - 28.4 °F 93% 29.75 in 1.8 mi Calm Calm - 0.00 in Snow Light Snow
7:15 AM 30.2 °F 26.7 °F 30.2 °F 100% 29.75 in 2.0 mi WNW 3.5 mph - 0.00 in   Overcast
7:34 AM 30.2 °F - 30.2 °F 100% 29.74 in 1.2 mi Calm Calm - 0.01 in Snow Light Snow
7:41 AM 30.2 °F - 30.2 °F 100% 29.74 in 1.0 mi Calm Calm - 0.01 in Snow Light Snow
7:51 AM 30.2 °F - 30.2 °F 100% 29.74 in 0.5 mi Calm Calm - 0.03 in Fog , Snow Snow
7:53 AM 30.9 °F - 30.0 °F 96% 29.76 in 0.2 mi Calm Calm - 0.04 in Fog , Snow Heavy Snow
8:12 AM 30.2 °F - 30.2 °F 100% 29.73 in 0.5 mi Calm Calm - 0.03 in Fog , Snow Light Snow
8:25 AM 30.2 °F 26.7 °F 28.4 °F 93% 29.73 in 0.8 mi WSW 3.5 mph - 0.03 in Snow Light Snow
8:36 AM 30.2 °F - 30.2 °F 100% 29.73 in 0.8 mi Calm Calm - 0.03 in Snow Light Snow
8:53 AM 30.9 °F - 30.0 °F 96% 29.74 in 0.8 mi Calm Calm - 0.04 in Snow Light Snow
9:02 AM 30.2 °F 26.7 °F 30.2 °F 100% 29.72 in 1.2 mi SW 3.5 mph - 0.00 in Snow Light Snow
9:14 AM 30.2 °F 25.4 °F 30.2 °F 100% 29.72 in 1.5 mi SW 4.6 mph - 0.00 in   Overcast
9:40 AM 32.0 °F 26.4 °F 30.2 °F 93% 29.72 in 1.5 mi WSW 5.8 mph - 0.00 in   Overcast
9:53 AM 32.0 °F 26.4 °F 30.0 °F 92% 29.75 in 1.8 mi SW 5.8 mph - 0.00 in   Overcast
10:00 AM 32.0 °F 25.6 °F 30.2 °F 93% 29.72 in 2.0 mi WSW 6.9 mph - N/A   Overcast
10:04 AM 32.0 °F 26.4 °F 30.2 °F 93% 29.72 in 2.0 mi SW 5.8 mph - N/A   Overcast
10:21 AM 32.0 °F 24.8 °F 30.2 °F 93% 29.72 in 2.5 mi WSW 8.1 mph - N/A   Overcast
10:35 AM 33.8 °F 25.8 °F 30.2 °F 87% 29.72 in 3.0 mi WSW 10.4 mph - N/A   Overcast
10:53 AM 34.0 °F 26.6 °F 30.9 °F 89% 29.74 in 5.0 mi West 9.2 mph - N/A   Overcast
11:13 AM 35.6 °F 26.6 °F 30.2 °F 81% 29.72 in 8.0 mi West 13.8 mph - N/A   Overcast
11:19 AM 35.6 °F 26.2 °F 30.2 °F 81% 29.72 in 8.0 mi West 15.0 mph - N/A   Overcast
11:53 AM 36.0 °F 25.6 °F 30.0 °F 79% 29.75 in 10.0 mi WNW 18.4 mph 29.9 mph N/A   Overcast
12:11 PM 35.6 °F 23.7 °F 28.4 °F 75% 29.74 in 10.0 mi WNW 24.2 mph 32.2 mph N/A   Overcast
12:18 PM 37.4 °F 25.9 °F 28.4 °F 70% 29.74 in 10.0 mi WNW 25.3 mph 32.2 mph N/A   Mostly Cloudy
12:45 PM 37.4 °F 26.6 °F 30.2 °F 75% 29.74 in 10.0 mi WNW 21.9 mph 29.9 mph N/A   Mostly Cloudy
12:53 PM 37.9 °F 26.3 °F 28.0 °F 68% 29.76 in 10.0 mi WNW 26.5 mph 33.4 mph N/A   Mostly Cloudy
1:03 PM 37.4 °F 25.9 °F 28.4 °F 70% 29.74 in 10.0 mi WNW 25.3 mph 33.4 mph N/A   Scattered Clouds
1:53 PM 37.9 °F 26.8 °F 24.1 °F 57% 29.78 in 10.0 mi WNW 24.2 mph 32.2 mph N/A   Partly Cloudy
2:53 PM 34.0 °F 21.3 °F 19.9 °F 56% 29.80 in 10.0 mi WNW 25.3 mph 36.8 mph N/A   Mostly Cloudy
3:53 PM 33.1 °F 21.5 °F 19.9 °F 59% 29.84 in 10.0 mi WNW 19.6 mph 34.5 mph N/A   Overcast
4:53 PM 30.9 °F 17.8 °F 18.0 °F 59% 29.86 in 10.0 mi WNW 23.0 mph 32.2 mph N/A   Overcast
5:53 PM 28.9 °F 15.4 °F 16.0 °F 58% 29.89 in 10.0 mi WNW 21.9 mph 28.8 mph N/A   Overcast
6:53 PM 28.0 °F 14.3 °F 15.1 °F 58% 29.93 in 10.0 mi WNW 21.9 mph 32.2 mph N/A   Overcast
7:53 PM 27.0 °F 12.8 °F 14.0 °F 58% 29.95 in 10.0 mi WNW 21.9 mph 31.1 mph N/A   Mostly Cloudy
8:53 PM 26.1 °F 13.1 °F 14.0 °F 60% 29.96 in 10.0 mi WNW 17.3 mph 24.2 mph N/A   Clear
9:53 PM 25.0 °F 14.2 °F 15.1 °F 66% 29.98 in 10.0 mi WNW 11.5 mph - N/A   Clear
10:53 PM 25.0 °F 12.6 °F 15.1 °F 66% 30.00 in 10.0 mi WNW 15.0 mph 24.2 mph N/A   Clear
11:53 PM 24.1 °F 11.5 °F 14.0 °F 65% 29.99 in 10.0 mi NW 15.0 mph 25.3 mph N/A   Partly Cloudy